Weather History for HEGN - January, 2013

Change the Weather History Date:

Tuesday, January 1, 2013

  Actual Average Record
Temperature  
Mean Temperature 65 °F -  
Max Temperature 75 °F 68 °F 78 °F (2005)
Min Temperature 55 °F 52 °F 50 °F (2012)
Growing Degree Days 15 (Base 50)    
Moisture  
Dew Point 50 °F    
Average Humidity 62    
Maximum Humidity 88    
Minimum Humidity 41    
Precipitation  
Precipitation 0.00 in - - ()
Sea Level Pressure  
Sea Level Pressure 30.03 in    
Wind  
Wind Speed 11 mph ()    
Max Wind Speed 20 mph    
Max Gust Speed -    
Visibility 6.0 miles    
Events      
Averages and records for this station are not official NWS values.
T = Trace of Precipitation, MM = Missing Value Source: Averaged Metar Reports

Daily Weather History Graph

Daily Weather History Graph

Search for Another Location

Airport or City:

Trip Planner

Search our weather history database for the weather conditions in past years. The results will help you decide how hot, cold, wet, or windy it might be!

Date:

Astronomy

Jan. 01, 2013 Rise Set
Actual Time 6:34 AM EET 5:02 PM EET
Civil Twilight 6:09 AM EET 5:27 PM EET
Nautical Twilight 5:40 AM EET 5:56 PM EET
Astronomical Twilight 5:11 AM EET 6:25 PM EET
Moon 8:49 PM EET (1/1) 8:57 AM EET (1/1)
Length of Visible Light 11h 18m
Length of Day
10h 27m
Waning Gibbous, 85% of the Moon is Illuminated
Jan 1
Waning Gibbous
Jan 5
Last Quarter
Jan 11
New
Jan 19
First Quarter
Jan 27
Full

Hourly Weather History & Observations

Time (EET) Temp. Dew Point Humidity Pressure Visibility Wind Dir Wind Speed Gust Speed Precip Events Conditions
12:00 AM 59.0 °F 46.4 °F 63% 30.01 in - NW 11.5 mph - N/A   Clear
1:00 AM 59.0 °F 46.4 °F 63% 30.01 in - WNW 9.2 mph - N/A   Clear
2:00 AM 59 °F 48 °F 58% 30.03 in 6 mi WNW 10.4 mph - -  
2:00 AM 59.0 °F 48.2 °F 67% 30.01 in - WNW 10.4 mph - N/A   Clear
3:00 AM 59.0 °F 50.0 °F 72% 30.01 in - NW 11.5 mph - N/A   Clear
4:00 AM 57.2 °F 51.8 °F 82% 30.01 in - WNW 9.2 mph - N/A   Clear
5:00 AM 57.2 °F 51.8 °F 82% 30.01 in - WNW 9.2 mph - N/A   Clear
6:00 AM 55.4 °F 51.8 °F 88% 30.01 in - WNW 10.4 mph - N/A   Clear
7:00 AM 55.4 °F 50.0 °F 82% 30.04 in - WNW 8.1 mph - N/A   Clear
8:00 AM 58 °F 50 °F 68% 30.04 in 6 mi WNW 9.2 mph - -  
8:00 AM 59.0 °F 50.0 °F 72% 30.04 in - WNW 9.2 mph - N/A   Clear
9:00 AM 64.4 °F 51.8 °F 64% 30.06 in - NW 15.0 mph - N/A   Clear
10:00 AM 68.0 °F 53.6 °F 60% 30.04 in - WNW 18.4 mph - N/A   Clear
11:00 AM 69.8 °F 53.6 °F 56% 30.04 in - NNW 13.8 mph - N/A   Clear
12:00 PM 73.4 °F 55.4 °F 53% 30.01 in - North 15.0 mph - N/A   Clear
1:00 PM 73.4 °F 53.6 °F 50% 29.98 in - North 18.4 mph - N/A   Clear
2:00 PM 74 °F 55 °F 41% 29.99 in 6 mi North 19.6 mph - -  
2:00 PM 75.2 °F 55.4 °F 50% 29.98 in - North 19.6 mph - N/A   Clear
4:00 PM 73.4 °F 51.8 °F 47% 30.01 in - North 19.6 mph - N/A   Clear
5:00 PM 69.8 °F 51.8 °F 53% 30.01 in - North 15.0 mph - N/A   Clear
6:00 PM 66.2 °F 50.0 °F 56% 30.04 in - North 13.8 mph - N/A   Clear
7:00 PM 64.4 °F 48.2 °F 56% 30.06 in - NNW 12.7 mph - N/A   Clear
8:00 PM 64 °F 49 °F 48% 30.08 in 6 mi NW 11.5 mph - -  
8:00 PM 64.4 °F 50.0 °F 59% 30.06 in - NW 11.5 mph - N/A   Clear
9:00 PM 60.8 °F 44.6 °F 55% 30.09 in - WNW 12.7 mph - N/A   Clear
10:00 PM 59.0 °F 44.6 °F 59% 30.09 in - WNW 11.5 mph - N/A   Clear
11:00 PM 59.0 °F 44.6 °F 59% 30.09 in - WNW 11.5 mph - N/A   Clear